Find SAT-47800

NORAD ID: 47800 Owner: SpaceX Operational

Live-Position

3D-Globus wird geladen...

Über SAT-47800

Beschreibung wird geladen...

Nächste Überflüge

Passes for default location (London). Set your location on the main map for personalized predictions.

Höhenverlauf

Loading altitude history...

Zweizeiliger Elementsatz

1 25544U 98067A 24001.50000000 .00002182 00000-0 42575-4 0 9990
2 25544 51.6461 339.7939 0001397 83.2776 276.8615 15.48919103123456
Epoch: 1. Jan. 2024 • Age: N/A

Aktueller Status

Position data unavailable

Most Searched